Location: Ida
(33.5751°N, 96.4900°W)
Time: 08:18:23
(UTC+00:00)

ISS - Visible Passes

Search period start: 11 October 2024 00:00
Search period end: 21 October 2024 00:00
Orbit: 411 x 424 km, 51.6° (Epoch: 10 October)

Date Brightness Start Highest point End Pass type
(mag) Time Alt. Az. Time Alt. Az. Time Alt. Az.
14 Oct -2.3 12:04:25 10° SSW 12:07:33 40° SE 12:10:41 10° ENE visible
15 Oct -1.2 11:16:35 10° S 11:19:07 20° SE 11:21:40 10° ENE visible
16 Oct -0.6 10:29:51 10° SE 10:30:37 11° SE 10:31:24 10° ESE visible
16 Oct -3.6 12:03:42 10° WSW 12:06:57 53° NW 12:10:13 10° NE visible
17 Oct -3.7 11:16:33 28° SW 11:18:08 75° SE 11:21:29 10° NE visible
18 Oct -1.6 10:30:27 26° E 10:30:27 26° E 10:32:23 10° ENE visible
18 Oct -2.1 12:03:35 10° W 12:06:05 19° NNW 12:08:34 10° NNE visible
19 Oct -2.9 11:16:56 32° NW 11:16:56 32° NW 11:19:56 10° NNE visible
20 Oct -1.0 10:30:14 15° NE 10:30:14 15° NE 10:30:58 10° NE visible
